User: anonymous   Login
Location: Unspecified
(0.0000°N, 0.0000°E)
Time: 07:48:24
(UTC+00:00)
Language:

NOSS 3-1 (C) - Orbit

View from above orbital plane
View from above orbital plane
View from above satellite
View from above satellite

Ground track
Ground track

The orbit data is extracted from the following two-line orbital elements,

1 26907U 01040C   18344.18346698 0.00000000  00000-0  00000-0 0    07
2 26907  63.4164  85.5309 0421463 359.8404   0.1595 13.41287129    01
Epoch (UTC): 10 December 2018 04:24:11
Eccentricity: 0.0421463
inclination: 63.4164°
perigee height: 789 km
apogee height: 1420 km
right ascension of ascending node: 85.5309°
argument of perigee: 359.8404°
revolutions per day: 13.41287129
mean anomaly at epoch: 0.1595°
orbit number at epoch: 0

The dashed part of the orbit path shows where the satellite is in the earth's shadow,  

DLR